LRFT Weather Reports


time (UTC)temp
C
wind
direction
speed
KPH
gust
KPH
rain 1hr
cm
rain 24hr
cm
rain mn
cm
humidity
%
barometer
mb
20260506001900 7 160 14.5 0.0 0.00 0.00 0.00 87 1016.0
20260506000401 7 160 14.5 0.0 0.00 0.00 0.00 87 1016.0
20260505234900 -17 0.0 0.0 0.00 0.00 0.00
20260505233359 -17 0.0 0.0 0.00 0.00 0.00
20260505231859 -17 0.0 0.0 0.00 0.00 0.00
20260505230400 -17 0.0 0.0 0.00 0.00 0.00
20260505224900 8 150 12.9 0.0 0.00 0.00 0.00 82 1016.0
20260505223359 8 150 12.9 0.0 0.00 0.00 0.00 82 1016.0
20260505221857 8 150 12.9 0.0 0.00 0.00 0.00 82 1016.0
20260505220400 8 150 12.9 0.0 0.00 0.00 0.00 82 1016.0
20260505214900 8 150 12.9 0.0 0.00 0.00 0.00 82 1016.0
20260505213400 10 140 14.5 0.0 0.00 0.00 0.00 76 1016.0
20260505211859 10 140 14.5 0.0 0.00 0.00 0.00 76 1016.0
20260505210400 10 140 14.5 0.0 0.00 0.00 0.00 76 1016.0
20260505204901 10 140 14.5 0.0 0.00 0.00 0.00 76 1016.0
20260505203359 10 140 14.5 0.0 0.00 0.00 0.00 76 1016.0
20260505201930 10 140 14.5 0.0 0.00 0.00 0.00 76 1016.0
20260505200400 10 140 14.5 0.0 0.00 0.00 0.00 76 1016.0
20260505194859 11 140 20.9 0.0 0.00 0.00 0.00 72 1015.0
20260505193359 11 140 20.9 0.0 0.00 0.00 0.00 72 1015.0
20260505191859 11 140 20.9 0.0 0.00 0.00 0.00 72 1015.0
20260505190359 11 140 20.9 0.0 0.00 0.00 0.00 72 1015.0
20260505184900 12 130 17.7 0.0 0.00 0.00 0.00 59 1015.0
20260505183400 12 130 17.7 0.0 0.00 0.00 0.00 59 1015.0
20260505181857 12 130 17.7 0.0 0.00 0.00 0.00 59 1015.0
20260505180400 12 130 17.7 0.0 0.00 0.00 0.00 59 1015.0
20260505174854 17 130 22.5 0.0 0.00 0.00 0.00 52 1015.0
20260505173359 17 130 22.5 0.0 0.00 0.00 0.00 52 1015.0
20260505171859 17 130 22.5 0.0 0.00 0.00 0.00 52 1015.0
20260505170400 17 130 22.5 0.0 0.00 0.00 0.00 52 1015.0
20260505164859 18 120 25.7 0.0 0.00 0.00 0.00 46 1014.0
20260505163400 18 120 25.7 0.0 0.00 0.00 0.00 46 1014.0
20260505161900 18 120 25.7 0.0 0.00 0.00 0.00 46 1014.0
20260505160400 18 120 25.7 0.0 0.00 0.00 0.00 46 1014.0
20260505153400 21 130 22.5 0.0 0.00 0.00 0.00 43 1014.0
20260505151908 21 130 22.5 0.0 0.00 0.00 0.00 43 1014.0
20260505150400 21 130 22.5 0.0 0.00 0.00 0.00 43 1014.0
20260505140359 22 90 8.0 0.0 0.00 0.00 0.00 36 1014.0
20260505124900 22 100 12.9 0.0 0.00 0.00 0.00 38 1015.0
20260505123359 22 100 12.9 0.0 0.00 0.00 0.00 38 1015.0
20260505121859 22 100 12.9 0.0 0.00 0.00 0.00 38 1015.0
20260505120412 -17 0.0 0.0 0.00 0.00 0.00
20260505114907 21 120 11.3 0.0 0.00 0.00 0.00 35 1016.0
20260505113430 21 120 11.3 0.0 0.00 0.00 0.00 35 1016.0
20260505111900 21 120 11.3 0.0 0.00 0.00 0.00 35 1016.0
20260505110400 21 120 11.3 0.0 0.00 0.00 0.00 35 1016.0
20260505101900 21 200 11.3 0.0 0.00 0.00 0.00 38 1016.0
20260505100400 21 200 11.3 0.0 0.00 0.00 0.00 38 1016.0
20260505094901 18 210 9.7 0.0 0.00 0.00 0.00 40 1017.0
20260505093359 18 210 9.7 0.0 0.00 0.00 0.00 40 1017.0
20260505091859 18 210 9.7 0.0 0.00 0.00 0.00 40 1017.0
20260505090359 18 210 9.7 0.0 0.00 0.00 0.00 40 1017.0
20260505084859 17 200 11.3 0.0 0.00 0.00 0.00 52 1017.0
20260505083400 17 200 11.3 0.0 0.00 0.00 0.00 52 1017.0
20260505081900 17 200 11.3 0.0 0.00 0.00 0.00 52 1017.0
20260505080405 17 200 11.3 0.0 0.00 0.00 0.00 52 1017.0
20260505074923 -17 0.0 0.0 0.00 0.00 0.00
20260505073359 15 210 9.7 0.0 0.00 0.00 0.00 59 1017.0
20260505071859 15 210 9.7 0.0 0.00 0.00 0.00 59 1017.0
20260505070359 15 210 9.7 0.0 0.00 0.00 0.00 59 1017.0
20260505064859 12 4.8 0.0 0.00 0.00 0.00 63 1016.0
20260505063400 12 4.8 0.0 0.00 0.00 0.00 63 1016.0
20260505061900 12 4.8 0.0 0.00 0.00 0.00 63 1016.0
20260505060400 12 4.8 0.0 0.00 0.00 0.00 63 1016.0
20260505054859 7 4.8 0.0 0.00 0.00 0.00 82 1016.0
20260505053400 7 4.8 0.0 0.00 0.00 0.00 82 1016.0
20260505051859 7 4.8 0.0 0.00 0.00 0.00 82 1016.0
20260505050359 7 4.8 0.0 0.00 0.00 0.00 82 1016.0
20260505040359 2 4.8 0.0 0.00 0.00 0.00 93 1015.0
20260505034856 6 4.8 0.0 0.00 0.00 0.00 76 1015.0
20260505033359 6 4.8 0.0 0.00 0.00 0.00 76 1015.0
20260505031859 6 4.8 0.0 0.00 0.00 0.00 76 1015.0
20260505030359 6 4.8 0.0 0.00 0.00 0.00 76 1015.0
20260505024900 6 4.8 0.0 0.00 0.00 0.00 81 1015.0
20260505023359 6 4.8 0.0 0.00 0.00 0.00 81 1015.0
20260505021859 6 4.8 0.0 0.00 0.00 0.00 81 1015.0
20260505020359 6 4.8 0.0 0.00 0.00 0.00 81 1015.0
20260505014853 6 4.8 0.0 0.00 0.00 0.00 81 1015.0
20260505013400 6 4.8 0.0 0.00 0.00 0.00 81 1015.0
20260505011853 6 4.8 0.0 0.00 0.00 0.00 81 1015.0
20260505010400 6 4.8 0.0 0.00 0.00 0.00 81 1015.0
20260505004856 6 4.8 0.0 0.00 0.00 0.00 81 1015.0
20260505003359 7 4.8 0.0 0.00 0.00 0.00 76 1015.0